Simultaneous Nadir Overpasses (SNOs) Predictions

Prediction of SNOs between AQUA and NOAA-19 Satellite Orbit:

Table of predicted SNOs for the next 14.0 days since TLE Epoch: 1/13/2012
Index Date Time (AQUA) AQUA Lat,Lon NOAA-19 Lat,Lon Distance(km) Time Diff (sec)
1 01/14/2012 11:25:24 51.02,-137.34 51.02,-137.34 0.37 4
2 01/16/2012 16:08:34 54.97, 153.47 54.97, 153.47 0.13 27
3 01/18/2012 20:05:28 -47.82, -88.46 -47.83, -88.45 0.89 28
4 01/21/2012 00:48:31 -52.15,-157.69 -52.15,-157.69 0.14 3
5 01/23/2012 04:46:02 42.39, -40.18 42.39, -40.18 0.29 58




NCC Satellite Simultaneous Nadir Overpasses (SNOs) Prediction Service
